Погода в Пурмамарке

Аргентина     23°40′02″S   65°28′18″W
темп.,
°C
ветер,
м/с
пор.,
м/с
влажн.,
%
обл.,
%
осадки,
мм/ч
давл.,
гПа
погр.,
м
18 апреля, вс
вс1800:00+7юв118838 0.1 1019248
03:00+7ю11846 0.1 101863
06:00+5св11850 0.0 101712
09:00+8вюв01690 0.0 1018213
12:00+13юв224810 0.0 10161420
15:00+13юв335638 0.3 10131131
18:00+9юв337539 0.4 1015480
21:00+7юв229065 0.7 1019256
19 апреля, пн
пн1900:00+7вюв018040 0.1 1019368
03:00+6ссз11840 0.2 101844
06:00+6с11800 0.0 101811
09:00+9с11560 0.0 1018170
12:00+14юв123410 0.0 10161408
15:00+14ююв234212 0.2 10131640
18:00+10юв327140 0.3 1014357
21:00+7ююв118638 0.3 1018236
20 апреля, вт
вт2000:00+7ю018734 0.0 1019164
03:00+7с33730 0.0 101728
06:00+7ссз22572 0.0 101613
09:00+10сз12470 0.0 1015117
12:00+15ююз02260 0.0 10131309
15:00+16ююв243613 0.1 10101820
18:00+11юв437139 0.2 1012392
21:00+9ююв0179100 0.3 1015215
21 апреля, ср
ср2100:00+9с2252100 0.0 101413
03:00+8зсз33250 0.0 101321
06:00+8зсз44230 0.0 101327
09:00+10сз45230 0.0 1014284
12:00+15зсз49120 0.0 10121891
15:00+18зсз5990 0.0 10072779
18:00+14ююв453812 0.3 10081309
21:00+9вюв228436 0.4 1014260
22 апреля, чт
чт2200:00+8сз22651 0.1 101421
03:00+7зсз33200 0.1 101314
06:00+5з22251 0.0 101313
09:00+8з22241 0.0 101593
12:00+13з27131 0.0 10121673
15:00+15з17161 0.0 10082089
18:00+10юв345427 0.1 10101159
21:00+7с015510 0.1 101342